contact: severine.martini@mio.osupytheas.fr, dominique.lefevre@mio.osupytheas.fr
Project:EMSO Ligure-ouest http://www.emso-fr.org/EMSO-France
Sensor Optode, line 4330 Serial 272 
DOI : "https://doi.org/10.17882/97948" 
Title:EMSO Ligure Ouest : Data BathyDock capteur Optode - deploiement "2023-04-28"
Datetime,Profondeur,Latitude,Longitude,optode_type,serial,O2_concentration,O2_saturation,Temperature,Calibrated_Phase,Temp_Compensated_Phase,phase_blue_light,phase_red_light,Amplitude_blue_light,Amplitude_red_light,thermistor_bridge
time,m,degree_north,degree_east,1,1,umol.l-1,%,degree_C,degree,degree,degree,degree,mV,mV,mV
2023-11-04T00:00:07,2420,42.8014,5.9826,4330,272,186.920,57.240,13.303,36.013,36.593,41.186,4.593,295.5,544.2,291.4
2023-11-04T00:03:08,2420,42.8014,5.9826,4330,272,186.686,57.168,13.304,36.028,36.608,41.200,4.592,295.4,544.2,291.4
2023-11-04T00:06:08,2420,42.8014,5.9826,4330,272,186.877,57.231,13.306,36.014,36.594,41.188,4.594,295.5,544.2,291.3
2023-11-04T00:09:08,2420,42.8014,5.9826,4330,272,186.882,57.230,13.304,36.015,36.596,41.189,4.593,295.4,544.2,291.4
2023-11-04T00:12:07,2420,42.8014,5.9826,4330,272,186.548,57.127,13.304,36.037,36.617,41.207,4.589,295.4,544.3,291.4
2023-11-04T00:15:07,2420,42.8014,5.9826,4330,272,186.715,57.177,13.303,36.027,36.607,41.196,4.589,295.3,544.1,291.4
2023-11-04T00:18:07,2420,42.8014,5.9826,4330,272,186.892,57.234,13.305,36.014,36.594,41.188,4.593,295.4,544.2,291.4
2023-11-04T00:21:07,2420,42.8014,5.9826,4330,272,186.673,57.167,13.305,36.028,36.608,41.200,4.592,295.3,544.2,291.4
2023-11-04T00:24:07,2420,42.8014,5.9826,4330,272,186.759,57.194,13.306,36.022,36.603,41.191,4.589,295.4,544.2,291.4
2023-11-04T00:27:07,2420,42.8014,5.9826,4330,272,186.723,57.182,13.305,36.025,36.605,41.196,4.591,295.4,544.1,291.4
2023-11-04T00:30:08,2420,42.8014,5.9826,4330,272,186.705,57.174,13.303,36.027,36.607,41.199,4.592,295.4,544.2,291.4
2023-11-04T00:33:07,2420,42.8014,5.9826,4330,272,186.791,57.201,13.304,36.021,36.601,41.192,4.591,295.4,544.1,291.4
2023-11-04T00:36:07,2420,42.8014,5.9826,4330,272,186.660,57.162,13.305,36.029,36.609,41.199,4.590,295.4,544.1,291.4
2023-11-04T00:39:07,2420,42.8014,5.9826,4330,272,186.894,57.235,13.306,36.014,36.594,41.188,4.593,295.4,544.2,291.4
2023-11-04T00:42:07,2420,42.8014,5.9826,4330,272,186.916,57.240,13.304,36.013,36.593,41.187,4.594,295.3,544.2,291.4
2023-11-04T00:45:07,2420,42.8014,5.9826,4330,272,186.752,57.191,13.305,36.024,36.604,41.193,4.590,295.3,544.2,291.4
2023-11-04T00:48:08,2420,42.8014,5.9826,4330,272,186.922,57.243,13.305,36.012,36.592,41.186,4.594,295.3,544.1,291.4
2023-11-04T00:51:08,2420,42.8014,5.9826,4330,272,186.751,57.190,13.304,36.023,36.603,41.188,4.584,295.4,544.2,291.4
2023-11-04T00:54:08,2420,42.8014,5.9826,4330,272,186.761,57.197,13.308,36.021,36.601,41.191,4.590,295.4,544.1,291.3
2023-11-04T00:57:08,2420,42.8014,5.9826,4330,272,186.628,57.153,13.305,36.031,36.612,41.200,4.589,295.3,544.1,291.4
2023-11-04T01:00:08,2420,42.8014,5.9826,4330,272,186.914,57.239,13.304,36.013,36.593,41.183,4.590,295.4,544.2,291.4
2023-11-04T01:03:07,2420,42.8014,5.9826,4330,272,186.763,57.194,13.305,36.023,36.603,41.191,4.588,295.3,544.1,291.4
2023-11-04T01:06:07,2420,42.8014,5.9826,4330,272,186.738,57.184,13.304,36.024,36.605,41.196,4.591,295.4,544.2,291.4
2023-11-04T01:09:07,2420,42.8014,5.9826,4330,272,186.955,57.253,13.305,36.010,36.590,41.180,4.590,295.4,544.1,291.4
2023-11-04T01:12:07,2420,42.8014,5.9826,4330,272,186.742,57.187,13.305,36.024,36.604,41.199,4.595,295.3,544.1,291.4
2023-11-04T01:15:07,2420,42.8014,5.9826,4330,272,186.597,57.144,13.306,36.033,36.613,41.204,4.591,295.4,544.1,291.4
2023-11-04T01:18:07,2420,42.8014,5.9826,4330,272,186.824,57.213,13.305,36.019,36.599,41.188,4.589,295.4,544.1,291.4
2023-11-04T01:21:08,2420,42.8014,5.9826,4330,272,186.877,57.231,13.306,36.014,36.594,41.187,4.592,295.3,544.2,291.3
2023-11-04T01:24:08,2420,42.8014,5.9826,4330,272,186.663,57.166,13.307,36.028,36.608,41.199,4.591,295.4,544.1,291.3
2023-11-04T01:27:08,2420,42.8014,5.9826,4330,272,187.016,57.275,13.307,36.006,36.586,41.179,4.593,295.3,544.1,291.3
2023-11-04T01:30:08,2420,42.8014,5.9826,4330,272,186.728,57.184,13.306,36.024,36.604,41.195,4.591,295.4,544.1,291.4
2023-11-04T01:33:07,2420,42.8014,5.9826,4330,272,186.973,57.262,13.308,36.008,36.588,41.181,4.593,295.4,544.1,291.3
2023-11-04T01:36:07,2420,42.8014,5.9826,4330,272,186.680,57.172,13.307,36.027,36.607,41.196,4.589,295.3,544.1,291.3
2023-11-04T01:39:07,2420,42.8014,5.9826,4330,272,186.762,57.199,13.309,36.020,36.601,41.193,4.593,295.3,544.1,291.3
2023-11-04T01:42:07,2420,42.8014,5.9826,4330,272,186.857,57.227,13.308,36.015,36.595,41.182,4.587,295.3,544.1,291.3
2023-11-04T01:45:07,2420,42.8014,5.9826,4330,272,186.796,57.206,13.307,36.019,36.599,41.187,4.588,295.4,544.1,291.3
2023-11-04T01:48:07,2420,42.8014,5.9826,4330,272,186.771,57.198,13.306,36.021,36.601,41.195,4.594,295.4,544.1,291.4
2023-11-04T01:51:07,2420,42.8014,5.9826,4330,272,186.583,57.140,13.306,36.034,36.614,41.202,4.588,295.4,544.1,291.4
2023-11-04T01:54:07,2420,42.8014,5.9826,4330,272,186.703,57.177,13.306,36.025,36.606,41.194,4.589,295.3,544.1,291.4
2023-11-04T01:57:08,2420,42.8014,5.9826,4330,272,186.797,57.206,13.306,36.020,36.600,41.194,4.594,295.3,544.1,291.4
2023-11-04T02:00:08,2420,42.8014,5.9826,4330,272,186.763,57.193,13.304,36.022,36.602,41.191,4.589,295.3,544.1,291.4
2023-11-04T02:03:07,2420,42.8014,5.9826,4330,272,186.953,57.252,13.305,36.010,36.590,41.177,4.587,295.4,544.1,291.4
2023-11-04T02:06:07,2420,42.8014,5.9826,4330,272,186.803,57.206,13.305,36.020,36.601,41.193,4.593,295.4,544.1,291.4
2023-11-04T02:09:07,2420,42.8014,5.9826,4330,272,186.873,57.229,13.306,36.015,36.595,41.188,4.594,295.3,544.1,291.4
2023-11-04T02:12:07,2420,42.8014,5.9826,4330,272,186.687,57.170,13.305,36.028,36.608,41.197,4.589,295.3,544.1,291.4
2023-11-04T02:15:07,2420,42.8014,5.9826,4330,272,186.810,57.213,13.309,36.018,36.598,41.190,4.592,295.3,544.1,291.3
2023-11-04T02:18:07,2420,42.8014,5.9826,4330,272,186.897,57.237,13.307,36.013,36.593,41.188,4.595,295.3,544.2,291.3
2023-11-04T02:21:07,2420,42.8014,5.9826,4330,272,186.589,57.144,13.307,36.033,36.613,41.202,4.589,295.3,544.1,291.3
2023-11-04T02:24:07,2420,42.8014,5.9826,4330,272,186.894,57.235,13.306,36.014,36.594,41.188,4.594,295.3,544.1,291.4
2023-11-04T02:27:07,2420,42.8014,5.9826,4330,272,186.806,57.208,13.306,36.019,36.599,41.189,4.590,295.4,544.1,291.4
2023-11-04T02:30:08,2420,42.8014,5.9826,4330,272,186.953,57.253,13.306,36.009,36.590,41.181,4.591,295.4,544.2,291.4
2023-11-04T02:33:07,2420,42.8014,5.9826,4330,272,186.950,57.254,13.307,36.009,36.590,41.180,4.590,295.3,544.1,291.3
2023-11-04T02:36:07,2420,42.8014,5.9826,4330,272,186.733,57.188,13.307,36.024,36.604,41.194,4.591,295.3,544.1,291.3
2023-11-04T02:39:08,2420,42.8014,5.9826,4330,272,186.907,57.241,13.307,36.012,36.592,41.182,4.590,295.4,544.2,291.3
2023-11-04T02:42:08,2420,42.8014,5.9826,4330,272,186.765,57.201,13.310,36.020,36.600,41.192,4.592,295.3,544.1,291.2
2023-11-04T02:45:08,2420,42.8014,5.9826,4330,272,186.763,57.199,13.309,36.020,36.601,41.187,4.586,295.3,544.1,291.3
2023-11-04T02:48:08,2420,42.8014,5.9826,4330,272,186.734,57.191,13.310,36.022,36.602,41.190,4.588,295.4,544.1,291.2
2023-11-04T02:51:07,2420,42.8014,5.9826,4330,272,186.835,57.221,13.309,36.016,36.596,41.183,4.587,295.3,544.2,291.3
2023-11-04T02:54:07,2420,42.8014,5.9826,4330,272,186.779,57.205,13.310,36.019,36.599,41.189,4.590,295.3,544.1,291.2
2023-11-04T02:57:07,2420,42.8014,5.9826,4330,272,186.772,57.202,13.309,36.019,36.600,41.185,4.586,295.3,544.1,291.3
2023-11-04T03:00:07,2420,42.8014,5.9826,4330,272,186.786,57.206,13.309,36.019,36.600,41.184,4.585,295.4,544.2,291.3
2023-11-04T03:03:07,2420,42.8014,5.9826,4330,272,186.796,57.208,13.308,36.019,36.599,41.192,4.593,295.4,544.2,291.3
2023-11-04T03:06:07,2420,42.8014,5.9826,4330,272,186.621,57.157,13.310,36.029,36.609,41.197,4.588,295.3,544.1,291.2
2023-11-04T03:09:07,2420,42.8014,5.9826,4330,272,186.717,57.186,13.310,36.023,36.603,41.193,4.589,295.3,544.1,291.2
2023-11-04T03:12:07,2420,42.8014,5.9826,4330,272,186.581,57.146,13.311,36.031,36.611,41.195,4.584,295.4,544.1,291.2
2023-11-04T03:15:07,2420,42.8014,5.9826,4330,272,186.739,57.194,13.311,36.021,36.602,41.195,4.594,295.3,544.2,291.2
2023-11-04T03:18:07,2420,42.8014,5.9826,4330,272,186.800,57.213,13.311,36.017,36.597,41.186,4.588,295.4,544.1,291.2
2023-11-04T03:21:08,2420,42.8014,5.9826,4330,272,186.509,57.122,13.310,36.036,36.616,41.207,4.591,295.3,544.1,291.2
2023-11-04T03:24:08,2420,42.8014,5.9826,4330,272,186.733,57.191,13.310,36.023,36.603,41.193,4.590,295.4,544.2,291.2
2023-11-04T03:27:08,2420,42.8014,5.9826,4330,272,186.655,57.167,13.310,36.027,36.607,41.197,4.590,295.4,544.1,291.2
2023-11-04T03:30:08,2420,42.8014,5.9826,4330,272,186.802,57.212,13.310,36.017,36.598,41.188,4.591,295.3,544.1,291.2
2023-11-04T03:33:07,2420,42.8014,5.9826,4330,272,186.642,57.165,13.311,36.027,36.607,41.196,4.588,295.3,544.0,291.2
2023-11-04T03:36:07,2420,42.8014,5.9826,4330,272,186.501,57.120,13.310,36.037,36.617,41.205,4.588,295.3,544.1,291.2
2023-11-04T03:39:07,2420,42.8014,5.9826,4330,272,186.773,57.208,13.314,36.018,36.598,41.190,4.591,295.3,544.0,291.1
2023-11-04T03:42:07,2420,42.8014,5.9826,4330,272,186.669,57.174,13.312,36.025,36.605,41.199,4.594,295.4,544.1,291.2
2023-11-04T03:45:07,2420,42.8014,5.9826,4330,272,186.617,57.161,13.314,36.027,36.608,41.197,4.590,295.4,544.1,291.1
2023-11-04T03:48:07,2420,42.8014,5.9826,4330,272,186.772,57.203,13.310,36.019,36.599,41.187,4.588,295.4,544.1,291.2
2023-11-04T03:51:07,2420,42.8014,5.9826,4330,272,186.886,57.242,13.313,36.011,36.591,41.183,4.592,295.3,544.0,291.1
2023-11-04T03:54:07,2420,42.8014,5.9826,4330,272,186.918,57.250,13.311,36.010,36.590,41.178,4.588,295.4,544.0,291.2
2023-11-04T03:57:08,2420,42.8014,5.9826,4330,272,186.725,57.191,13.312,36.022,36.602,41.196,4.594,295.3,544.1,291.2
2023-11-04T04:00:08,2420,42.8014,5.9826,4330,272,186.331,57.072,13.313,36.047,36.627,41.211,4.584,295.4,544.1,291.1
2023-11-04T04:03:07,2420,42.8014,5.9826,4330,272,186.511,57.131,13.316,36.033,36.613,41.205,4.591,295.4,544.1,291.0
2023-11-04T04:06:07,2420,42.8014,5.9826,4330,272,186.839,57.229,13.314,36.013,36.593,41.189,4.595,295.4,544.1,291.1
2023-11-04T04:09:07,2420,42.8014,5.9826,4330,272,186.821,57.222,13.313,36.015,36.595,41.185,4.590,295.3,544.0,291.1
2023-11-04T04:12:07,2420,42.8014,5.9826,4330,272,186.751,57.198,13.311,36.020,36.600,41.186,4.586,295.3,544.1,291.2
2023-11-04T04:15:07,2420,42.8014,5.9826,4330,272,186.762,57.201,13.311,36.019,36.600,41.192,4.593,295.4,544.0,291.2
2023-11-04T04:18:07,2420,42.8014,5.9826,4330,272,186.500,57.122,13.312,36.037,36.617,41.205,4.588,295.4,544.0,291.2
2023-11-04T04:21:07,2420,42.8014,5.9826,4330,272,186.624,57.166,13.317,36.026,36.606,41.192,4.587,295.4,544.0,291.0
2023-11-04T04:24:07,2420,42.8014,5.9826,4330,272,186.696,57.185,13.314,36.023,36.603,41.190,4.587,295.4,544.1,291.1
2023-11-04T04:27:07,2420,42.8014,5.9826,4330,272,186.510,57.145,13.327,36.028,36.608,41.198,4.590,295.3,544.0,290.7
2023-11-04T04:30:08,2420,42.8014,5.9826,4330,272,186.648,57.176,13.319,36.023,36.603,41.192,4.589,295.3,544.0,290.9
2023-11-04T04:33:07,2420,42.8014,5.9826,4330,272,186.580,57.163,13.325,36.025,36.605,41.198,4.593,295.3,544.1,290.7
2023-11-04T04:36:07,2420,42.8014,5.9826,4330,272,186.693,57.184,13.314,36.023,36.603,41.191,4.588,295.4,544.0,291.1
2023-11-04T04:39:08,2420,42.8014,5.9826,4330,272,186.672,57.187,13.321,36.021,36.601,41.188,4.587,295.4,544.0,290.9
2023-11-04T04:42:08,2420,42.8014,5.9826,4330,272,186.838,57.229,13.314,36.013,36.594,41.184,4.590,295.3,544.0,291.1
2023-11-04T04:45:08,2420,42.8014,5.9826,4330,272,186.460,57.117,13.317,36.036,36.616,41.208,4.592,295.4,544.1,291.0
2023-11-04T04:48:08,2420,42.8014,5.9826,4330,272,186.787,57.214,13.315,36.016,36.596,41.189,4.593,295.3,544.0,291.1
2023-11-04T04:51:08,2420,42.8014,5.9826,4330,272,186.599,57.166,13.322,36.025,36.605,41.195,4.590,295.4,544.0,290.8
2023-11-04T04:54:07,2420,42.8014,5.9826,4330,272,186.624,57.168,13.318,36.025,36.605,41.196,4.592,295.4,544.0,291.0
2023-11-04T04:57:07,2420,42.8014,5.9826,4330,272,186.687,57.191,13.321,36.020,36.600,41.189,4.589,295.3,544.0,290.9
2023-11-04T05:00:07,2420,42.8014,5.9826,4330,272,186.520,57.137,13.319,36.031,36.612,41.198,4.586,295.3,544.0,290.9
2023-11-04T05:03:08,2420,42.8014,5.9826,4330,272,186.704,57.190,13.316,36.021,36.601,41.191,4.589,295.4,544.0,291.0
2023-11-04T05:06:08,2420,42.8014,5.9826,4330,272,186.610,57.163,13.317,36.026,36.606,41.197,4.591,295.4,544.0,291.0
2023-11-04T05:09:07,2420,42.8014,5.9826,4330,272,186.747,57.217,13.327,36.013,36.593,41.185,4.592,295.4,544.0,290.7
2023-11-04T05:12:07,2420,42.8014,5.9826,4330,272,186.487,57.140,13.329,36.029,36.609,41.204,4.595,295.3,544.1,290.6
2023-11-04T05:15:07,2420,42.8014,5.9826,4330,272,186.507,57.146,13.329,36.028,36.608,41.202,4.594,295.4,544.0,290.6
2023-11-04T05:18:07,2420,42.8014,5.9826,4330,272,186.471,57.142,13.334,36.027,36.608,41.202,4.594,295.3,544.0,290.4
2023-11-04T05:21:07,2420,42.8014,5.9826,4330,272,186.725,57.220,13.334,36.010,36.591,41.180,4.589,295.4,543.9,290.4
2023-11-04T05:24:07,2420,42.8014,5.9826,4330,272,186.357,57.106,13.334,36.035,36.615,41.207,4.591,295.4,544.0,290.4
2023-11-04T05:27:07,2420,42.8014,5.9826,4330,272,186.334,57.097,13.332,36.037,36.617,41.206,4.589,295.4,543.9,290.5
2023-11-04T05:30:07,2420,42.8014,5.9826,4330,272,186.293,57.085,13.333,36.040,36.620,41.210,4.590,295.3,544.0,290.5
2023-11-04T05:33:07,2420,42.8014,5.9826,4330,272,186.303,57.090,13.334,36.038,36.618,41.208,4.590,295.4,544.0,290.4
2023-11-04T05:36:07,2420,42.8014,5.9826,4330,272,186.475,57.147,13.338,36.025,36.605,41.194,4.588,295.4,544.0,290.3
2023-11-04T05:39:08,2420,42.8014,5.9826,4330,272,186.320,57.094,13.333,36.038,36.618,41.206,4.588,295.5,544.0,290.5
2023-11-04T05:42:08,2420,42.8014,5.9826,4330,272,186.369,57.121,13.342,36.030,36.610,41.199,4.588,295.4,543.9,290.2
2023-11-04T05:45:08,2420,42.8014,5.9826,4330,272,186.365,57.109,13.334,36.034,36.614,41.207,4.593,295.5,544.0,290.4
2023-11-04T05:48:08,2420,42.8014,5.9826,4330,272,186.211,57.051,13.326,36.048,36.628,41.215,4.587,295.5,544.0,290.7
2023-11-04T05:51:08,2420,42.8014,5.9826,4330,272,186.596,57.171,13.327,36.023,36.603,41.195,4.592,295.4,544.0,290.7
2023-11-04T05:54:08,2420,42.8014,5.9826,4330,272,186.304,57.094,13.337,36.037,36.617,41.212,4.595,295.5,544.0,290.3
2023-11-04T05:57:08,2420,42.8014,5.9826,4330,272,186.366,57.099,13.326,36.038,36.618,41.209,4.591,295.5,543.9,290.7
2023-11-04T06:00:07,2420,42.8014,5.9826,4330,272,186.215,57.046,13.320,36.051,36.630,41.219,4.589,295.5,543.9,290.9
2023-11-04T06:03:07,2420,42.8014,5.9826,4330,272,186.371,57.105,13.330,36.036,36.616,41.203,4.587,295.5,544.0,290.6
2023-11-04T06:06:07,2420,42.8014,5.9826,4330,272,186.479,57.128,13.322,36.033,36.613,41.207,4.594,295.5,544.0,290.8
2023-11-04T06:09:07,2420,42.8014,5.9826,4330,272,186.566,57.152,13.320,36.028,36.608,41.202,4.594,295.5,544.0,290.9
2023-11-04T06:12:07,2420,42.8014,5.9826,4330,272,186.414,57.120,13.331,36.032,36.613,41.204,4.591,295.5,544.0,290.5
2023-11-04T06:15:07,2420,42.8014,5.9826,4330,272,186.358,57.101,13.330,36.037,36.617,41.208,4.591,295.5,544.0,290.6
2023-11-04T06:18:07,2420,42.8014,5.9826,4330,272,186.276,57.083,13.335,36.039,36.619,41.213,4.594,295.5,544.0,290.4
2023-11-04T06:21:08,2420,42.8014,5.9826,4330,272,186.229,57.072,13.338,36.042,36.622,41.216,4.594,295.4,544.0,290.3
2023-11-04T06:24:08,2420,42.8014,5.9826,4330,272,186.280,57.080,13.332,36.041,36.621,41.215,4.595,295.5,543.9,290.5
2023-11-04T06:27:08,2420,42.8014,5.9826,4330,272,186.432,57.122,13.328,36.033,36.613,41.204,4.591,295.5,544.0,290.6
2023-11-04T06:30:08,2420,42.8014,5.9826,4330,272,186.327,57.104,13.339,36.034,36.614,41.206,4.591,295.5,544.0,290.3
2023-11-04T06:33:07,2420,42.8014,5.9826,4330,272,186.368,57.108,13.332,36.035,36.615,41.205,4.590,295.5,543.9,290.5
2023-11-04T06:36:07,2420,42.8014,5.9826,4330,272,186.406,57.121,13.333,36.032,36.612,41.202,4.590,295.4,544.0,290.5
2023-11-04T06:39:07,2420,42.8014,5.9826,4330,272,186.042,57.015,13.338,36.053,36.633,41.220,4.587,295.5,543.9,290.3
2023-11-04T06:42:07,2420,42.8014,5.9826,4330,272,186.287,57.086,13.334,36.039,36.619,41.210,4.590,295.5,544.0,290.4
2023-11-04T06:45:07,2420,42.8014,5.9826,4330,272,186.373,57.105,13.329,36.036,36.616,41.212,4.595,295.5,544.0,290.6
2023-11-04T06:48:07,2420,42.8014,5.9826,4330,272,186.294,57.092,13.338,36.037,36.618,41.212,4.595,295.5,543.9,290.3
2023-11-04T06:51:08,2420,42.8014,5.9826,4330,272,186.179,57.053,13.335,36.046,36.626,41.215,4.588,295.5,544.0,290.4
2023-11-04T06:54:08,2420,42.8014,5.9826,4330,272,186.195,57.058,13.335,36.045,36.625,41.213,4.589,295.6,544.0,290.4
2023-11-04T06:57:08,2420,42.8014,5.9826,4330,272,186.441,57.137,13.338,36.028,36.608,41.204,4.596,295.5,543.9,290.3
2023-11-04T07:00:08,2420,42.8014,5.9826,4330,272,186.210,57.066,13.338,36.042,36.622,41.213,4.591,295.5,544.0,290.3
2023-11-04T07:03:07,2420,42.8014,5.9826,4330,272,186.083,57.025,13.336,36.052,36.632,41.224,4.592,295.5,544.0,290.4
2023-11-04T07:06:07,2420,42.8014,5.9826,4330,272,186.246,57.072,13.334,36.042,36.622,41.213,4.591,295.6,544.0,290.4
2023-11-04T07:09:07,2420,42.8014,5.9826,4330,272,186.084,57.020,13.332,36.054,36.634,41.222,4.588,295.6,543.9,290.5
2023-11-04T07:12:07,2420,42.8014,5.9826,4330,272,186.044,57.010,13.333,36.056,36.636,41.226,4.590,295.6,543.9,290.5
2023-11-04T07:15:07,2420,42.8014,5.9826,4330,272,186.386,57.119,13.337,36.031,36.611,41.201,4.589,295.5,543.9,290.3
2023-11-04T07:18:07,2420,42.8014,5.9826,4330,272,186.468,57.138,13.332,36.029,36.609,41.200,4.591,295.5,543.9,290.5
2023-11-04T07:21:07,2420,42.8014,5.9826,4330,272,186.308,57.076,13.322,36.043,36.623,41.213,4.590,295.6,544.0,290.8
2023-11-04T07:24:07,2420,42.8014,5.9826,4330,272,186.328,57.090,13.328,36.039,36.619,41.212,4.593,295.5,544.0,290.6
2023-11-04T07:27:08,2420,42.8014,5.9826,4330,272,186.272,57.076,13.331,36.042,36.622,41.217,4.595,295.5,544.0,290.6
2023-11-04T07:30:08,2420,42.8014,5.9826,4330,272,186.034,57.007,13.334,36.056,36.636,41.226,4.590,295.5,544.0,290.5
2023-11-04T07:33:07,2420,42.8014,5.9826,4330,272,186.467,57.141,13.334,36.028,36.608,41.201,4.593,295.6,544.0,290.4
2023-11-04T07:36:07,2420,42.8014,5.9826,4330,272,186.429,57.112,13.321,36.037,36.617,41.205,4.589,295.5,544.0,290.9
2023-11-04T07:39:07,2420,42.8014,5.9826,4330,272,186.550,57.148,13.320,36.029,36.609,41.203,4.594,295.6,544.0,290.9
2023-11-04T07:42:07,2420,42.8014,5.9826,4330,272,186.293,57.069,13.320,36.046,36.626,41.215,4.589,295.5,544.0,290.9
2023-11-04T07:45:07,2420,42.8014,5.9826,4330,272,186.321,57.080,13.322,36.043,36.623,41.215,4.591,295.6,544.0,290.8
2023-11-04T07:48:07,2420,42.8014,5.9826,4330,272,186.404,57.102,13.319,36.039,36.619,41.213,4.594,295.6,543.9,290.9
2023-11-04T07:51:07,2420,42.8014,5.9826,4330,272,186.304,57.078,13.324,36.043,36.623,41.211,4.587,295.5,543.9,290.8
2023-11-04T07:54:08,2420,42.8014,5.9826,4330,272,186.513,57.138,13.321,36.031,36.611,41.201,4.591,295.5,544.1,290.9
2023-11-04T07:57:08,2420,42.8014,5.9826,4330,272,186.409,57.104,13.320,36.039,36.619,41.211,4.592,295.5,544.0,290.9
2023-11-04T08:00:08,2420,42.8014,5.9826,4330,272,186.464,57.115,13.315,36.037,36.617,41.209,4.592,295.6,544.0,291.1
2023-11-04T08:03:07,2420,42.8014,5.9826,4330,272,186.172,57.026,13.315,36.056,36.636,41.225,4.589,295.6,544.0,291.1
2023-11-04T08:06:07,2420,42.8014,5.9826,4330,272,186.305,57.078,13.325,36.043,36.623,41.214,4.591,295.5,544.0,290.7
2023-11-04T08:09:07,2420,42.8014,5.9826,4330,272,186.253,57.058,13.321,36.048,36.628,41.217,4.589,295.6,544.1,290.9
2023-11-04T08:12:07,2420,42.8014,5.9826,4330,272,186.499,57.137,13.324,36.030,36.610,41.205,4.595,295.6,544.0,290.8
2023-11-04T08:15:07,2420,42.8014,5.9826,4330,272,186.627,57.170,13.319,36.025,36.605,41.197,4.592,295.5,544.0,290.9
2023-11-04T08:18:07,2420,42.8014,5.9826,4330,272,186.473,57.125,13.321,36.033,36.613,41.210,4.596,295.5,544.0,290.9
2023-11-04T08:21:07,2420,42.8014,5.9826,4330,272,186.174,57.039,13.325,36.051,36.631,41.220,4.589,295.5,544.0,290.7
2023-11-04T08:24:08,2420,42.8014,5.9826,4330,272,186.589,57.160,13.320,36.026,36.607,41.201,4.594,295.5,543.9,290.9
2023-11-04T08:27:08,2420,42.8014,5.9826,4330,272,186.554,57.147,13.318,36.030,36.610,41.202,4.593,295.4,544.0,291.0
2023-11-04T08:30:08,2420,42.8014,5.9826,4330,272,186.413,57.104,13.318,36.039,36.619,41.208,4.589,295.5,544.0,290.9
2023-11-04T08:33:07,2420,42.8014,5.9826,4330,272,186.345,57.081,13.317,36.044,36.624,41.212,4.588,295.5,544.0,291.0
2023-11-04T08:36:07,2420,42.8014,5.9826,4330,272,186.427,57.109,13.319,36.038,36.618,41.204,4.587,295.5,544.0,290.9
2023-11-04T08:39:07,2420,42.8014,5.9826,4330,272,186.445,57.114,13.318,36.037,36.617,41.209,4.592,295.5,544.0,290.9
2023-11-04T08:42:07,2420,42.8014,5.9826,4330,272,186.483,57.125,13.318,36.034,36.614,41.206,4.592,295.5,544.1,291.0
2023-11-04T08:45:07,2420,42.8014,5.9826,4330,272,186.579,57.161,13.323,36.026,36.606,41.198,4.591,295.5,544.0,290.8
2023-11-04T08:48:07,2420,42.8014,5.9826,4330,272,186.393,57.100,13.320,36.039,36.619,41.211,4.592,295.5,544.0,290.9
2023-11-04T08:51:07,2420,42.8014,5.9826,4330,272,186.433,57.119,13.326,36.034,36.614,41.201,4.587,295.5,544.0,290.7
2023-11-04T08:54:07,2420,42.8014,5.9826,4330,272,186.648,57.182,13.323,36.022,36.602,41.194,4.592,295.5,544.0,290.8
2023-11-04T08:57:07,2420,42.8014,5.9826,4330,272,186.379,57.093,13.318,36.042,36.622,41.216,4.594,295.5,544.0,290.9
2023-11-04T09:00:08,2420,42.8014,5.9826,4330,272,186.448,57.129,13.329,36.031,36.611,41.202,4.590,295.5,544.0,290.6
2023-11-04T09:03:07,2420,42.8014,5.9826,4330,272,186.150,57.042,13.333,36.049,36.629,41.221,4.592,295.5,544.0,290.5
2023-11-04T09:06:07,2420,42.8014,5.9826,4330,272,186.319,57.089,13.329,36.040,36.620,41.211,4.591,295.5,544.0,290.6
2023-11-04T09:09:08,2420,42.8014,5.9826,4330,272,186.202,57.065,13.339,36.043,36.623,41.212,4.589,295.5,544.0,290.3
2023-11-04T09:12:08,2420,42.8014,5.9826,4330,272,186.235,57.059,13.326,36.047,36.627,41.216,4.588,295.5,544.0,290.7
2023-11-04T09:15:08,2420,42.8014,5.9826,4330,272,186.137,57.039,13.334,36.050,36.629,41.219,4.590,295.5,543.9,290.4
2023-11-04T09:18:08,2420,42.8014,5.9826,4330,272,186.230,57.066,13.332,36.044,36.624,41.211,4.587,295.5,544.0,290.5
2023-11-04T09:21:08,2420,42.8014,5.9826,4330,272,186.128,57.042,13.338,36.048,36.628,41.219,4.591,295.6,543.9,290.3
2023-11-04T09:24:07,2420,42.8014,5.9826,4330,272,186.269,57.072,13.328,36.043,36.623,41.214,4.591,295.6,543.9,290.6
2023-11-04T09:27:07,2420,42.8014,5.9826,4330,272,186.188,57.045,13.327,36.049,36.629,41.225,4.596,295.6,544.0,290.7
2023-11-04T09:30:07,2420,42.8014,5.9826,4330,272,186.290,57.078,13.328,36.042,36.622,41.215,4.593,295.5,543.9,290.6
2023-11-04T09:33:07,2420,42.8014,5.9826,4330,272,186.103,57.015,13.323,36.057,36.637,41.227,4.590,295.5,544.0,290.8
2023-11-04T09:36:07,2420,42.8014,5.9826,4330,272,186.405,57.111,13.326,36.035,36.615,41.204,4.589,295.6,544.0,290.7
2023-11-04T09:39:08,2420,42.8014,5.9826,4330,272,186.003,57.001,13.336,36.057,36.637,41.226,4.589,295.5,543.9,290.4
2023-11-04T09:42:07,2420,42.8014,5.9826,4330,272,185.944,56.988,13.340,36.059,36.639,41.229,4.590,295.6,544.0,290.2
2023-11-04T09:45:07,2420,42.8014,5.9826,4330,272,186.208,57.065,13.337,36.043,36.623,41.209,4.586,295.6,544.0,290.3
2023-11-04T09:48:07,2420,42.8014,5.9826,4330,272,186.025,56.996,13.327,36.060,36.640,41.231,4.592,295.6,543.9,290.7
2023-11-04T09:51:07,2420,42.8014,5.9826,4330,272,186.363,57.099,13.326,36.038,36.618,41.213,4.594,295.6,544.0,290.7
2023-11-04T09:54:08,2420,42.8014,5.9826,4330,272,186.141,57.040,13.334,36.049,36.629,41.224,4.595,295.6,544.0,290.5
2023-11-04T09:57:08,2420,42.8014,5.9826,4330,272,186.115,57.030,13.332,36.052,36.632,41.227,4.595,295.7,544.0,290.5
2023-11-04T10:00:08,2420,42.8014,5.9826,4330,272,186.337,57.095,13.329,36.039,36.619,41.213,4.594,295.6,544.0,290.6